Theta_e
333 331 330 325 322 320 319 315 298 303 295 290 289 289 290 297 299 295 296 298 296 301 305 301 299 302 299 299 300 300 301 298 301 291 295 308 323 323 323 324 321 320 324 331 338 338 339 345 350 351 352 353 352 353 352 351 351 351 351 350 350 351 351 351 351 350 350 348 348 348 349 348 348 348 347 347 346 346 345 347 349 349 346 346 345 346 347 347 346 346 346 346 345 349 351 352 352
329 323 322 322 319 320 310 310 297 295 293 287 290 290 294 296 295 294 294 297 299 301 302 300 300 301 301 302 299 300 301 303 302 309 314 320 322 318 322 324 321 320 319 331 334 339 337 338 347 351 350 352 352 350 350 350 351 350 351 351 351 351 351 351 351 350 350 350 349 349 349 349 349 348 348 347 347 347 346 345 348 346 345 345 345 345 346 346 346 345 345 345 345 347 350 352 353
327 322 322 322 319 317 313 306 295 291 288 285 289 292 296 294 293 295 297 298 301 302 300 300 302 302 301 299 298 296 295 308 309 308 314 316 310 313 320 321 321 318 317 322 334 333 337 338 343 349 350 351 352 352 350 351 351 351 351 351 351 350 349 349 349 349 349 347 348 349 348 347 349 348 348 348 347 347 346 346 348 347 345 345 345 346 346 345 344 345 345 345 345 347 349 351 352
327 324 321 317 310 311 304 301 293 289 287 286 287 293 294 294 294 297 298 300 300 299 300 301 299 304 300 297 299 299 300 303 308 308 312 310 312 317 317 318 319 319 322 322 330 339 341 340 343 348 349 350 351 351 351 351 351 351 351 351 351 350 350 350 348 349 349 349 348 348 348 347 348 348 347 348 348 346 346 347 346 346 345 346 346 346 347 346 345 345 345 345 346 347 348 349 351
320 324 322 315 310 304 300 299 294 287 287 287 286 293 294 295 296 296 300 299 299 299 300 301 297 301 301 302 302 296 299 306 306 309 311 315 313 313 316 317 318 322 322 321 330 336 338 341 343 347 349 349 350 350 350 350 351 351 351 351 350 350 350 350 350 350 349 349 349 349 347 347 348 348 348 347 347 346 346 346 346 345 346 345 348 348 348 347 347 346 346 346 345 346 348 350 352
320 320 320 314 307 307 300 292 290 288 291 291 289 292 294 296 297 297 299 299 299 299 300 298 298 298 300 302 305 300 305 299 307 309 311 310 313 315 316 316 320 323 323 322 323 329 333 339 342 345 345 346 348 349 349 349 350 350 350 350 351 351 351 350 350 349 348 349 350 349 347 347 347 347 345 347 347 347 347 345 345 347 348 347 347 349 348 348 348 347 346 346 345 345 348 351 351
313 308 313 308 307 305 295 292 289 288 293 294 292 293 295 297 298 297 297 300 300 300 300 300 299 297 296 302 305 308 309 309 308 308 312 312 313 314 316 315 318 321 322 323 324 325 329 335 340 341 342 342 343 344 345 347 348 349 349 350 350 350 350 350 350 350 349 348 347 348 346 347 347 347 347 347 348 349 347 346 348 347 347 347 347 347 348 348 348 348 347 347 347 346 348 351 351
316 305 308 298 296 296 292 293 290 289 294 295 296 295 296 297 297 298 297 296 298 297 300 299 298 298 298 305 297 306 307 309 310 311 312 312 314 315 315 316 317 319 320 322 324 325 330 333 337 341 338 340 340 341 342 343 344 348 348 349 349 349 350 348 348 348 348 346 346 346 347 348 347 347 347 347 348 348 349 348 348 348 347 347 347 347 347 348 347 348 348 348 347 346 347 350 351
311 307 306 299 294 295 292 291 292 294 294 296 296 301 304 299 298 298 298 300 298 297 298 298 298 293 296 298 298 303 305 308 309 311 310 310 313 316 315 314 315 315 315 316 319 320 320 325 330 336 339 338 339 339 340 340 342 343 346 347 348 348 348 347 349 347 347 347 347 347 348 347 347 347 346 345 345 348 348 348 348 348 347 347 347 346 346 347 347 347 347 347 346 345 346 346 350
306 304 298 298 295 291 291 292 289 294 293 296 295 297 299 299 298 297 297 296 297 296 298 298 296 296 299 297 298 300 302 306 307 307 309 309 311 313 311 311 312 312 311 311 312 313 313 320 323 325 329 336 338 338 339 339 340 341 342 343 345 347 347 348 346 347 346 346 347 346 346 347 348 347 347 347 347 345 345 348 347 346 347 346 346 346 346 346 346 347 347 347 347 346 345 343 345
300 306 304 295 290 289 289 290 291 295 293 295 295 299 299 298 298 297 297 296 296 297 298 298 296 298 298 297 297 305 305 304 304 303 307 308 308 309 308 309 310 311 308 309 309 310 310 311 319 321 322 325 330 335 338 338 339 339 339 341 343 344 345 345 346 346 346 346 345 347 347 346 346 347 347 347 346 344 344 347 345 343 343 344 346 346 346 346 347 347 347 347 348 348 347 346 343
296 296 298 291 290 290 288 289 292 293 294 294 295 298 299 298 298 295 295 295 296 296 296 298 296 297 297 296 297 300 302 303 303 304 306 307 306 308 307 308 309 310 309 306 307 308 309 309 310 316 319 321 322 325 330 334 336 337 338 339 339 340 343 344 344 344 345 344 344 343 345 345 345 345 346 346 347 346 346 346 343 343 344 343 346 346 346 346 346 346 346 346 347 347 347 347 345
299 298 292 291 289 291 290 290 291 292 292 293 294 298 297 298 297 297 296 295 295 295 296 298 299 298 294 295 298 302 300 301 303 304 305 305 306 306 306 306 308 308 308 306 305 306 308 308 309 310 314 317 317 320 322 325 329 335 336 338 338 338 338 340 341 342 343 344 344 343 342 343 343 344 346 344 345 346 345 344 343 343 344 345 346 346 346 345 345 345 345 345 346 346 346 346 345
303 303 296 292 292 294 289 290 290 289 291 295 295 299 299 296 298 297 294 294 295 295 299 301 299 299 296 295 295 295 298 301 302 304 304 305 305 304 305 304 305 305 306 305 303 304 305 306 308 308 310 310 310 314 317 321 325 329 333 335 335 336 337 338 338 338 340 341 341 341 340 338 339 340 342 344 344 343 343 344 344 344 344 344 345 345 345 345 345 345 345 345 345 345 346 345 345
302 302 295 294 291 289 293 291 291 288 291 295 298 298 298 300 297 296 296 294 296 299 301 303 302 298 292 293 292 295 298 300 301 302 303 303 303 303 303 303 303 303 303 303 303 303 303 305 305 306 309 309 309 311 313 315 321 323 327 330 332 334 337 335 335 335 335 335 336 336 335 333 332 333 335 337 340 339 337 337 339 344 344 343 345 345 345 345 345 344 344 344 344 345 345 345 345
304 300 297 294 290 291 292 291 291 290 293 295 298 296 296 298 298 296 299 298 298 301 301 296 301 296 296 294 296 297 298 299 300 300 300 300 300 300 300 300 300 301 302 302 302 302 303 303 303 303 307 308 307 309 312 313 317 320 322 325 327 329 331 332 333 333 330 327 328 328 327 328 328 331 328 330 331 335 334 333 333 340 343 344 344 344 344 344 344 344 344 344 344 344 344 343 342
304 299 294 291 291 290 291 291 289 289 293 295 296 296 294 295 299 299 300 299 297 296 297 298 297 299 296 296 297 297 298 300 301 298 298 297 296 296 297 298 299 300 302 301 301 302 302 302 301 301 304 305 304 307 310 312 314 317 317 319 321 323 325 327 328 326 324 323 323 323 323 328 330 331 333 332 326 330 327 327 330 337 340 341 341 342 343 343 343 343 343 343 343 343 339 338 335
303 297 292 289 291 290 293 293 294 295 292 294 295 296 293 294 295 299 298 297 297 297 296 296 297 297 297 298 298 298 298 297 297 296 295 295 295 294 294 295 296 297 298 299 300 301 301 301 301 300 301 303 302 305 308 311 312 314 313 315 317 319 320 321 324 327 323 326 324 326 328 328 329 331 332 329 332 330 329 325 327 332 338 338 338 340 341 341 342 342 342 342 342 341 336 337 334
298 294 291 289 290 292 295 295 294 293 293 295 296 295 294 295 295 297 294 294 295 294 294 294 293 294 295 296 296 296 296 296 295 295 294 294 293 293 293 294 294 295 297 298 298 300 300 300 301 299 300 301 301 301 304 307 308 309 311 313 315 318 317 318 321 323 326 328 328 329 327 329 330 330 331 330 331 327 329 326 326 329 333 335 335 336 338 339 340 341 341 340 340 336 335 336 336
301 293 291 289 293 295 296 296 295 295 295 294 294 295 294 295 296 298 294 291 294 292 291 291 291 291 292 293 294 295 295 295 295 294 294 293 293 293 292 293 293 294 295 296 297 300 299 299 300 299 300 301 301 300 302 302 304 306 306 309 312 314 315 317 318 320 322 325 327 329 329 329 330 331 326 324 322 329 330 324 324 326 327 329 328 331 333 335 338 338 337 337 335 332 335 335 335
300 293 291 292 294 294 295 295 295 295 296 295 295 293 293 295 296 296 294 293 291 292 294 292 291 291 292 293 294 294 293 293 294 294 293 293 293 293 292 293 292 293 295 296 297 298 298 299 299 299 299 300 300 300 300 300 303 302 302 305 309 310 312 314 316 317 320 321 323 324 327 328 330 332 333 332 331 331 331 331 330 328 328 329 326 329 331 331 331 332 332 332 332 332 334 335 335
296 293 295 295 294 295 296 296 295 295 293 293 292 292 294 296 296 294 295 291 289 291 293 294 293 293 292 292 293 293 292 293 292 292 292 293 293 291 292 292 293 293 295 294 295 296 297 298 297 298 298 299 299 299 299 300 301 299 300 303 305 306 308 310 313 316 317 319 320 321 322 323 325 327 330 331 332 332 329 330 330 330 329 328 329 329 330 329 329 328 328 329 331 332 333 333 333
292 292 295 295 296 295 296 296 296 295 294 293 292 295 295 294 294 295 294 292 292 295 294 294 293 293 293 293 292 292 292 292 292 292 292 292 293 293 292 291 291 291 292 292 293 294 296 296 296 297 296 299 298 299 299 299 299 298 299 302 302 302 304 306 309 309 311 315 318 319 320 321 322 324 326 328 329 330 330 329 329 329 329 329 329 329 329 329 328 328 327 327 329 331 332 332 332
294 291 294 297 295 296 296 296 293 293 294 295 295 294 295 293 292 295 293 293 294 294 294 294 293 293 293 292 292 292 292 291 292 292 292 292 293 294 293 292 291 291 291 292 292 293 294 295 295 296 296 297 297 298 298 298 297 298 298 300 300 302 303 303 302 303 308 313 316 318 318 320 321 322 324 325 327 328 327 326 327 328 328 329 329 329 329 328 328 328 327 326 328 330 330 330 331
295 295 296 295 296 296 296 294 293 295 295 293 292 292 292 293 294 293 292 293 294 293 293 293 292 292 291 291 291 291 291 291 291 292 292 291 292 294 293 292 291 291 291 291 292 292 293 295 295 295 295 295 296 297 296 296 297 297 297 298 298 303 301 300 300 302 305 308 311 314 316 317 319 321 322 323 324 325 326 327 327 327 328 328 328 329 329 328 327 327 327 327 328 328 329 329 329
297 296 295 296 296 297 296 295 295 295 297 292 291 292 293 295 296 292 293 293 294 293 292 292 291 290 290 290 290 290 290 290 291 291 291 291 292 291 291 291 291 290 291 291 291 292 293 294 294 294 294 295 295 295 295 295 295 295 295 296 297 299 298 299 299 301 303 303 304 306 307 311 314 317 319 321 322 323 325 326 326 325 325 326 327 327 327 328 327 326 326 325 326 327 327 328 327
297 295 295 295 294 296 296 295 295 294 294 292 292 292 293 295 294 287 293 293 293 292 291 291 290 290 290 290 290 290 289 290 290 292 291 291 290 290 290 290 289 290 291 291 291 292 294 293 294 294 294 295 295 294 294 294 295 294 295 295 296 296 297 298 298 300 300 300 301 301 303 306 309 312 315 318 320 321 323 324 324 325 324 325 327 327 327 327 327 326 325 325 325 325 326 327 327
296 295 293 293 294 295 295 295 294 294 293 293 293 292 292 293 294 291 292 293 293 291 290 290 289 289 289 289 289 290 289 289 289 290 290 289 289 289 289 289 290 290 290 291 291 292 292 293 293 294 294 294 294 294 294 294 294 294 295 295 295 296 297 296 297 298 298 298 299 300 301 302 304 306 308 311 314 317 320 321 323 324 324 324 325 326 326 325 326 325 325 324 323 323 325 326 326
295 294 290 291 293 293 294 293 293 293 293 294 294 290 291 292 289 293 293 293 292 291 289 289 288 288 288 288 288 288 288 288 288 289 291 290 290 290 289 290 290 289 290 291 291 291 291 292 293 293 294 293 293 293 293 293 293 294 294 294 294 296 295 296 296 296 297 297 298 299 299 300 302 303 304 309 314 317 317 318 320 321 324 324 324 325 325 324 324 323 321 320 320 321 322 323 324
295 293 290 291 289 288 292 294 294 293 293 294 292 283 282 288 291 293 293 292 291 290 289 288 288 288 287 287 288 288 288 288 288 289 290 291 290 290 289 290 291 290 291 290 290 291 292 293 294 295 294 293 293 293 294 293 293 293 294 293 294 294 295 295 295 296 296 296 297 297 298 299 300 301 305 310 311 311 314 316 317 319 322 323 324 324 323 323 322 322 320 319 317 319 320 321 321
289 292 290 285 285 284 291 293 292 292 294 294 294 284 285 289 291 293 293 292 290 288 288 287 288 287 287 287 287 287 288 289 289 290 292 292 290 289 290 289 289 290 290 290 290 290 291 291 294 293 293 292 293 293 293 293 293 293 293 293 294 294 294 294 295 295 296 296 296 296 297 298 299 301 305 304 306 310 312 314 315 317 319 321 322 323 323 323 323 321 319 319 318 319 320 320 321
290 289 283 287 284 285 291 293 292 291 294 294 291 284 284 288 291 292 292 291 290 288 287 287 286 286 286 286 287 287 288 289 291 291 292 291 291 289 289 289 290 290 290 290 290 290 290 290 292 291 292 292 292 293 292 292 293 293 293 295 293 293 293 293 294 294 295 296 296 296 297 297 298 300 301 303 307 308 308 309 313 315 317 318 320 322 322 321 321 321 318 319 317 317 318 318 320
289 287 283 285 285 285 290 292 292 291 293 293 290 284 286 287 291 291 290 290 289 287 286 286 286 286 286 286 287 286 287 288 288 289 291 291 291 289 288 289 290 290 290 289 288 288 289 290 291 290 291 291 291 291 292 292 292 292 292 292 293 293 293 293 294 294 295 295 296 296 296 297 298 299 300 304 305 302 304 308 311 313 315 316 318 320 322 321 320 318 317 318 319 317 317 317 318
285 286 284 286 285 284 283 287 290 292 291 288 289 286 285 286 291 291 289 289 287 286 286 286 286 286 286 286 286 286 286 287 288 288 291 290 290 289 289 290 289 289 289 288 287 288 288 289 289 290 291 291 291 291 291 291 292 292 292 292 293 292 292 293 293 294 294 295 295 295 296 296 297 298 299 302 300 301 304 306 308 310 311 312 314 316 321 321 320 320 317 318 318 317 316 316 317
283 284 284 284 283 284 284 284 286 292 290 288 287 286 286 287 289 289 289 288 287 286 286 286 285 286 286 286 285 286 285 286 288 288 291 289 288 288 288 288 288 288 287 286 287 288 288 288 290 290 290 290 291 291 291 291 291 291 291 291 291 291 292 292 293 293 293 294 294 294 295 296 297 297 298 299 299 300 301 303 305 308 310 311 311 312 317 320 319 320 318 317 317 318 317 317 318
286 285 284 283 282 283 284 287 290 290 288 287 286 285 287 286 288 288 288 288 286 286 285 285 285 285 285 285 285 285 285 287 288 290 289 287 287 288 287 287 287 286 287 286 288 287 287 288 289 289 290 290 290 291 291 290 290 290 289 290 290 290 291 291 292 292 293 293 293 294 295 296 296 297 297 298 299 299 299 301 303 307 309 310 310 309 312 319 319 318 317 317 316 315 316 317 317
287 286 286 284 284 285 288 289 290 288 288 286 287 286 284 285 287 289 288 286 285 285 285 285 284 285 285 285 285 284 285 286 290 289 288 287 287 286 286 286 286 285 285 286 286 286 287 288 288 288 289 290 290 289 289 289 288 289 289 289 288 289 290 291 291 292 292 292 293 294 294 295 295 296 297 297 297 297 298 300 302 304 307 309 309 309 311 316 320 319 318 316 315 314 314 314 314
287 286 284 284 284 284 288 288 290 289 287 282 284 285 286 287 288 288 287 285 285 285 284 284 284 285 285 285 284 284 285 287 286 286 287 285 285 286 285 285 286 284 285 285 285 286 286 287 288 288 289 289 289 289 289 289 289 289 288 288 289 289 289 289 290 291 291 292 292 293 293 294 295 296 296 296 296 297 297 298 299 301 304 306 307 308 309 308 315 318 317 315 316 314 313 314 314
287 285 283 282 284 286 289 289 289 288 288 283 283 284 285 287 289 287 286 286 286 286 286 285 284 284 284 284 284 283 284 285 284 285 285 283 285 285 283 284 284 284 284 285 285 286 287 288 288 288 289 289 289 289 289 289 289 289 289 289 289 289 290 290 290 291 291 291 291 292 293 293 294 295 296 296 297 297 297 298 298 300 303 304 305 305 306 306 309 315 316 314 314 314 314 315 314
285 284 283 282 284 285 281 285 286 288 286 283 284 285 287 287 288 286 287 286 284 285 285 285 285 284 284 284 284 282 282 283 284 283 284 282 282 282 283 283 283 284 284 284 285 286 287 288 287 288 288 289 289 289 290 289 289 289 289 289 290 289 288 290 290 290 290 290 290 291 292 293 294 294 295 295 296 297 297 297 298 300 301 302 303 303 304 303 304 307 316 315 315 311 312 312 314
285 286 284 283 284 284 284 283 286 287 287 287 286 284 283 285 285 283 284 285 285 285 285 284 284 284 285 284 283 283 282 283 283 284 283 282 282 282 282 283 283 283 284 284 285 286 287 287 287 288 288 288 288 289 288 288 288 287 288 288 288 287 287 286 286 286 288 288 289 290 291 292 292 293 294 295 296 296 297 298 299 299 299 300 301 302 303 303 303 304 311 315 314 313 311 312 312
282 285 287 286 286 284 284 284 284 281 280 283 283 277 274 279 283 283 282 283 283 284 283 282 283 284 283 282 282 283 284 283 283 283 284 283 283 281 282 282 282 282 284 285 285 286 286 287 287 287 288 288 288 288 287 287 286 285 284 283 282 282 281 282 281 282 283 283 284 287 288 290 291 292 294 295 296 296 297 298 298 298 297 298 300 302 304 303 303 303 305 315 314 315 312 311 310
282 283 287 286 285 285 283 282 282 276 274 283 284 274 275 280 281 281 282 282 282 282 282 282 282 283 282 282 282 282 282 283 283 283 283 281 281 281 281 282 282 283 283 285 285 286 286 287 287 287 287 287 287 287 286 286 284 283 283 282 282 281 280 281 282 283 283 283 284 284 285 287 289 291 292 293 294 296 297 297 297 297 297 298 300 302 303 302 302 301 302 304 313 314 314 311 310
282 284 284 284 284 283 283 283 282 280 282 282 284 281 276 277 281 283 282 282 281 281 282 282 282 282 281 281 281 281 281 281 282 283 282 281 280 281 281 282 282 283 283 285 285 285 286 286 286 286 286 286 286 285 285 284 283 282 282 282 282 281 281 281 282 282 283 283 283 283 284 285 287 289 291 292 294 295 296 296 296 296 297 298 300 301 302 303 302 303 302 302 305 314 313 312 311
282 285 284 284 284 283 283 281 280 280 278 276 279 282 276 275 278 284 282 280 280 280 281 281 281 281 281 280 281 281 281 281 281 282 281 280 281 281 282 282 282 283 284 284 285 285 286 286 286 285 285 285 285 284 284 283 283 282 281 281 280 281 281 282 282 283 282 282 282 282 283 284 286 288 290 291 292 294 295 295 295 296 297 298 299 300 301 302 301 301 301 300 300 306 314 314 313
285 284 285 284 284 283 282 280 279 278 275 275 277 280 273 276 278 280 281 281 280 280 280 281 281 280 280 280 280 281 281 281 281 280 280 280 281 281 282 282 282 283 284 285 285 285 285 285 285 284 283 284 284 283 283 282 281 281 280 280 280 280 281 281 281 281 281 281 281 281 282 283 285 287 288 291 292 294 295 295 295 295 296 298 298 299 300 300 300 301 301 301 301 301 311 313 313
288 286 284 282 282 282 281 280 278 274 270 277 279 279 278 273 277 279 279 281 284 282 279 280 280 280 280 280 280 281 281 281 281 280 280 281 281 282 282 281 282 283 283 284 285 284 284 284 283 283 283 283 283 282 281 281 280 280 280 280 279 278 279 279 279 279 280 280 280 281 282 283 284 286 287 288 291 294 295 295 295 295 296 297 297 298 299 299 300 301 301 301 300 300 302 313 312
285 282 280 280 280 276 277 273 276 270 270 272 276 278 279 271 274 280 283 279 284 282 280 279 279 279 280 280 280 280 280 280 280 280 280 280 281 281 281 281 282 282 283 283 283 284 284 283 283 282 282 282 282 281 281 280 280 280 280 279 278 278 278 278 278 278 279 279 280 280 280 281 281 283 284 286 288 291 293 294 294 295 295 296 297 298 299 299 300 300 301 300 300 300 300 305 312
282 279 279 275 271 272 267 270 269 269 272 273 275 276 276 276 280 277 283 280 282 283 282 280 279 279 279 279 280 280 280 279 280 280 280 281 280 280 280 280 281 282 283 283 283 283 283 282 281 281 280 281 281 280 280 279 279 279 279 278 278 279 278 278 278 278 279 279 279 278 279 279 279 280 281 282 285 291 293 294 294 294 294 295 296 297 298 298 299 299 300 300 300 299 299 300 310
281 280 276 274 270 267 271 270 268 269 273 275 275 278 274 277 278 281 280 279 281 281 281 280 279 279 279 279 279 280 280 279 280 280 279 279 279 280 280 281 281 282 282 282 282 282 282 281 281 280 280 280 280 279 279 279 278 278 278 278 278 278 277 278 278 278 279 278 278 278 278 278 278 279 280 281 284 287 291 294 295 294 294 295 296 296 297 297 298 298 299 299 299 299 300 300 304
282 279 279 277 274 272 274 271 272 276 273 272 277 272 270 271 276 278 280 279 280 280 280 279 279 279 279 279 279 279 278 278 279 279 279 280 280 280 280 280 281 281 281 281 281 281 281 280 280 279 279 279 279 279 279 278 278 277 277 277 277 277 277 277 277 278 277 277 278 278 278 278 278 278 279 281 283 285 287 290 293 294 294 295 295 295 296 296 297 297 297 298 298 299 299 300 302
280 279 278 275 276 279 277 271 271 271 272 272 270 274 274 276 278 279 279 279 279 280 279 279 279 279 279 279 279 279 279 279 279 279 279 279 279 280 280 280 281 280 280 281 281 281 280 280 279 279 278 278 278 278 277 277 277 277 277 276 276 277 277 276 276 277 277 277 277 277 276 277 277 277 278 280 282 284 286 288 290 293 294 294 294 294 294 294 294 295 295 296 297 298 298 299 300
278 279 276 278 281 281 277 276 276 274 273 273 274 274 277 279 279 277 278 278 278 278 278 278 278 278 278 278 278 278 279 278 278 279 279 279 278 279 280 280 280 280 280 280 280 280 279 279 279 278 278 278 277 277 277 277 276 276 276 275 276 275 275 274 275 275 275 275 276 276 276 276 276 277 278 279 280 282 284 286 288 291 293 293 293 292 292 292 293 294 294 295 296 298 298 298 299
280 276 278 283 284 282 277 273 273 272 269 273 272 273 276 275 272 276 276 276 277 276 276 277 277 277 277 278 278 278 278 279 279 278 278 278 279 279 280 280 279 279 280 280 280 280 279 279 278 277 277 276 276 276 276 276 275 275 275 275 274 274 274 274 274 274 274 275 275 275 275 274 275 276 277 278 279 281 284 286 287 289 291 292 291 291 291 292 292 293 293 294 296 297 298 298 299
281 280 286 281 276 275 276 272 270 269 271 272 275 274 276 276 277 274 275 275 276 276 276 276 276 276 277 277 277 278 278 278 278 278 278 279 278 279 279 278 278 279 279 279 279 279 279 278 278 277 276 276 276 276 276 276 275 275 275 274 273 274 274 273 273 274 273 273 273 273 274 274 275 275 276 277 278 280 282 283 286 289 290 291 291 291 291 291 291 291 292 293 295 296 297 297 299
284 286 281 284 280 279 274 276 275 276 272 272 274 276 275 276 278 276 277 278 278 277 275 276 276 277 277 277 277 277 277 277 277 278 278 279 279 277 276 276 277 278 278 279 278 278 277 277 277 276 276 276 275 275 275 274 274 274 273 273 273 273 273 272 272 272 272 272 273 273 273 273 274 275 276 277 277 278 279 280 284 285 286 289 291 290 290 290 290 291 291 292 293 295 296 296 298
278 278 277 279 279 280 278 276 274 274 273 272 272 271 275 278 279 279 279 279 279 277 277 277 277 277 277 277 278 277 277 277 277 278 278 278 278 277 276 276 277 277 277 278 277 277 277 277 276 276 275 274 274 274 274 274 274 273 273 272 272 272 272 272 272 272 272 272 272 273 273 273 274 274 275 275 276 277 278 281 281 281 283 286 289 290 290 290 290 289 290 291 292 293 294 295 297
281 280 279 280 277 274 273 273 276 274 275 271 270 272 279 279 280 282 281 281 279 278 279 278 277 277 277 278 277 277 277 277 277 278 277 277 276 276 276 277 277 277 277 276 277 276 276 275 275 275 274 274 273 273 273 273 273 273 272 272 272 272 272 271 271 271 271 271 272 272 272 273 272 273 274 275 276 277 278 279 279 280 282 284 287 290 290 289 289 289 289 291 291 292 293 295 296
Wind_Speed
5 5 3 3 0 0 2 0 1 2 4 1 2 2 1 1 1 4 5 3 4 0 0 2 4 4 2 1 0 2 2 4 2 6 2 1 2 0 5 8 9 9 8 5 2 2 1 2 3 3 4 4 1 2 3 3 4 4 5 6 7 9 9 10 11 11 10 11 12 9 8 10 10 10 10 10 9 9 9 8 7 7 9 10 11 11 12 12 12 12 12 12 11 9 7 6 8
4 3 3 3 2 1 1 1 3 1 4 6 3 2 2 2 6 2 4 4 1 1 0 1 2 1 2 2 4 7 12 7 4 7 3 2 7 5 11 10 8 10 8 7 2 1 2 1 3 2 1 4 4 2 2 5 6 5 6 7 7 9 10 11 11 11 11 12 11 12 10 11 10 11 11 11 10 10 10 8 6 7 11 13 12 12 13 12 11 12 12 13 12 10 7 7 9
3 4 5 3 1 1 1 1 1 1 6 4 2 2 1 7 3 1 5 4 1 0 2 2 1 1 2 6 3 3 3 11 13 3 3 3 8 13 13 10 9 8 8 9 7 4 2 3 2 1 1 2 4 5 5 5 6 7 8 8 8 10 9 11 10 11 11 12 12 10 9 13 12 12 11 12 12 12 11 9 8 8 10 11 12 12 12 12 11 11 12 13 13 11 8 7 10
3 1 0 2 2 2 1 2 3 3 4 5 3 5 3 1 3 1 4 4 3 2 3 3 3 1 2 6 2 5 6 5 6 5 2 9 3 8 10 10 10 8 10 9 9 8 8 6 5 5 4 4 5 5 7 8 8 8 8 9 9 10 10 10 12 13 12 10 13 12 12 13 12 12 12 12 13 13 12 11 9 9 10 11 12 12 12 11 11 11 11 11 12 11 9 9 11
2 3 2 1 2 2 2 1 0 4 5 1 3 1 1 2 3 4 0 3 3 6 3 1 2 3 4 8 5 4 6 2 8 7 2 3 6 5 6 8 7 11 12 9 8 7 6 10 9 8 9 10 9 9 9 9 9 9 9 9 10 10 11 11 12 12 13 12 10 11 12 14 12 14 13 13 13 12 11 10 11 11 11 11 11 13 13 13 12 12 12 11 11 12 10 9 11
3 2 1 2 1 2 1 3 3 7 2 2 4 0 1 1 3 2 0 1 4 5 2 4 2 0 5 3 4 5 7 5 3 4 2 6 6 6 5 6 7 11 10 11 11 8 7 11 10 8 9 10 10 12 13 13 12 11 11 11 11 12 12 11 11 10 13 14 11 10 12 16 13 13 14 12 11 13 11 11 11 7 5 7 10 12 13 14 13 13 13 13 12 12 10 9 12
2 3 1 3 1 2 3 2 1 4 3 4 4 3 4 1 1 3 1 1 1 5 3 1 1 3 8 4 8 6 5 3 1 3 3 5 4 6 5 6 7 9 10 8 7 8 9 12 11 10 8 9 9 10 11 13 15 14 13 13 12 13 13 13 12 11 12 11 13 14 14 13 12 13 12 11 12 9 10 9 6 7 8 9 10 11 11 12 13 14 13 13 14 13 10 10 13
0 2 1 4 1 2 1 0 1 3 1 5 4 5 2 3 1 2 1 3 1 2 2 2 3 10 4 8 8 2 5 4 2 3 5 6 5 8 9 9 12 11 12 11 9 9 11 12 12 7 10 10 10 10 11 12 13 14 15 15 14 13 14 15 14 13 12 12 12 13 14 11 13 13 13 13 10 9 7 8 9 9 10 11 12 12 13 13 13 13 13 12 11 12 13 11 14
2 1 1 4 3 1 1 0 0 0 3 3 4 4 3 2 1 1 1 0 1 3 1 2 2 3 2 12 9 2 5 6 6 4 7 11 11 9 11 14 13 12 13 12 11 10 11 18 18 14 9 10 10 11 12 12 12 13 14 16 16 16 15 14 15 15 13 13 14 13 10 12 11 11 9 15 13 10 9 10 10 12 12 12 13 14 14 14 15 15 14 14 11 11 11 11 14
1 2 1 1 2 2 1 0 4 1 4 3 5 3 1 0 1 3 1 6 2 4 2 1 6 8 6 10 2 8 6 8 5 9 12 10 11 12 13 12 12 11 11 12 11 11 11 16 20 22 20 15 12 12 12 11 12 12 13 13 15 16 16 16 16 16 16 16 14 15 14 14 12 11 12 13 13 12 13 11 13 13 13 13 14 15 15 16 16 16 15 13 11 10 10 11 15
2 1 2 2 4 1 1 1 3 1 4 2 3 1 1 0 3 1 3 4 4 3 2 6 5 9 10 5 7 1 5 7 14 13 9 8 11 11 12 10 9 9 12 12 11 11 11 11 17 20 21 22 18 15 14 12 12 12 12 13 13 14 16 16 17 17 17 16 16 14 14 15 13 12 13 13 12 11 14 13 11 12 16 15 14 15 15 15 16 16 15 12 11 9 9 10 14
3 2 3 2 1 1 2 4 3 2 2 2 1 1 1 3 1 2 3 5 1 5 5 3 1 6 8 5 2 4 5 13 10 7 8 8 11 11 10 9 9 9 10 12 10 11 11 11 11 15 19 21 21 19 15 12 12 13 12 13 14 15 15 16 16 17 18 17 16 18 16 15 15 15 13 13 12 12 11 12 10 16 17 17 15 15 15 15 16 16 14 11 9 9 10 10 13
1 1 3 2 1 0 1 5 2 3 1 1 1 1 1 6 2 1 2 4 3 7 4 6 1 3 3 3 2 2 12 11 9 7 8 8 8 8 7 9 9 9 9 13 14 12 11 12 12 11 15 20 19 20 19 19 17 12 12 12 12 14 15 15 16 17 16 17 18 16 17 15 13 13 13 15 12 11 12 13 14 17 18 16 15 15 15 15 15 15 12 10 10 11 11 11 14
1 0 2 1 0 0 1 1 1 4 2 2 1 0 1 2 0 3 5 5 3 6 2 5 2 8 6 4 4 6 7 8 9 8 7 8 7 8 8 8 8 9 9 11 14 12 12 12 12 11 12 14 15 15 16 18 19 20 15 12 11 12 13 13 14 14 16 15 16 15 14 14 13 12 13 14 14 14 14 14 15 18 18 17 15 15 15 15 15 13 11 11 11 11 11 12 15
1 0 1 1 4 1 0 2 3 4 2 0 1 3 3 1 3 4 6 5 6 2 1 13 2 5 2 2 2 5 5 6 8 8 8 8 9 8 8 8 8 8 9 11 12 13 13 12 12 11 11 13 14 12 12 14 19 20 20 18 16 15 13 16 16 14 14 14 15 14 14 14 14 13 14 14 15 15 15 16 16 16 17 18 16 15 16 15 14 12 12 11 12 12 11 12 16
1 2 1 1 2 0 1 2 1 7 1 1 2 5 6 2 0 3 0 3 3 6 9 6 11 4 5 11 4 4 5 6 7 8 10 10 8 7 8 8 8 8 8 10 11 12 10 11 12 11 11 13 12 12 12 13 16 19 19 19 19 17 16 16 16 16 15 13 13 14 14 13 12 12 14 13 15 16 16 13 12 17 18 17 16 16 15 15 14 13 12 12 12 13 12 13 15
2 2 1 2 4 1 1 1 2 1 2 1 3 2 2 0 1 2 1 10 14 8 15 6 8 5 9 7 5 5 5 7 10 11 11 10 8 9 8 9 8 8 8 9 11 11 11 11 13 12 11 14 14 12 11 11 13 17 15 17 18 18 18 16 16 15 14 13 12 12 13 11 9 9 11 10 13 12 14 16 16 18 18 17 16 16 16 15 14 14 14 13 13 14 13 14 15
2 2 2 3 2 1 1 1 1 1 2 0 2 1 5 1 2 0 7 16 12 10 14 10 12 10 8 4 4 4 5 10 9 12 11 9 7 8 9 8 9 10 9 10 11 13 12 11 11 14 10 13 14 11 9 9 10 14 12 12 12 14 13 15 11 10 10 8 12 10 8 8 8 8 9 11 10 11 12 16 18 19 18 17 16 17 17 17 15 14 14 14 14 14 14 9 9
2 0 2 4 0 2 2 1 3 1 1 1 1 2 3 0 1 1 5 7 11 11 8 8 12 9 7 8 6 7 6 9 9 9 10 10 9 9 8 6 8 8 9 8 9 11 10 10 10 14 12 11 13 12 10 9 11 10 11 12 10 13 13 12 11 11 9 9 8 8 8 7 8 8 9 10 10 13 13 15 17 18 18 18 17 17 17 17 16 15 15 14 13 14 10 7 7
0 2 1 3 3 2 2 4 3 3 4 3 2 2 4 1 1 1 4 5 7 11 9 6 9 8 7 4 6 5 7 7 8 9 9 9 8 8 9 8 8 7 6 6 6 6 9 9 9 10 12 10 13 11 11 11 11 10 10 11 11 10 10 10 11 11 10 10 9 8 8 8 8 8 11 15 14 11 11 14 17 19 20 20 20 15 15 15 16 16 14 14 11 7 6 7 7
1 2 2 2 1 3 2 5 4 4 5 1 1 1 3 3 1 2 8 9 6 4 3 11 11 10 7 6 5 6 8 8 8 8 8 7 6 6 6 6 5 6 5 5 6 9 10 10 8 9 12 7 11 10 11 11 10 10 11 11 10 10 11 11 10 10 10 11 11 9 9 8 8 8 9 9 9 9 9 9 9 10 10 11 15 11 9 9 10 8 8 9 6 6 7 7 7
1 2 2 2 2 1 2 4 5 4 5 4 3 5 1 3 3 2 6 7 3 4 7 11 11 10 9 8 5 4 6 7 6 6 6 4 5 5 6 6 6 4 5 7 7 7 9 9 9 8 11 8 11 9 10 9 9 9 10 10 11 11 11 11 11 10 10 11 11 11 11 10 9 9 8 9 10 10 9 9 9 9 9 10 10 9 9 9 8 8 8 8 7 6 7 7 8
2 2 1 1 0 1 2 3 2 6 2 3 2 0 1 3 3 3 8 7 5 8 10 11 11 10 9 7 5 6 7 7 6 5 5 5 4 4 5 5 7 8 5 5 5 5 7 7 8 8 10 7 10 9 9 8 7 9 9 9 10 10 10 11 11 12 13 13 11 10 10 11 11 9 10 9 9 9 10 9 8 8 10 10 9 9 10 9 9 8 8 8 8 7 7 7 8
2 2 1 1 4 3 3 3 4 5 7 1 1 2 1 4 6 1 11 6 10 9 11 12 11 10 8 10 7 7 6 6 5 5 4 5 4 4 4 6 5 5 5 5 6 5 7 7 8 7 9 8 9 9 8 8 6 9 9 9 9 10 10 10 11 11 12 12 12 11 10 10 11 11 10 10 10 9 9 10 9 8 8 9 9 9 10 9 9 9 9 8 9 8 9 8 8
1 1 0 2 2 2 2 2 3 2 0 1 6 4 5 5 6 5 7 9 9 10 10 11 10 10 8 9 7 5 6 5 6 5 5 5 5 4 4 4 4 4 7 5 6 5 7 6 7 8 8 9 9 9 9 7 8 8 8 9 9 9 7 8 10 11 11 11 12 12 12 12 11 11 12 11 10 11 10 9 8 9 7 8 9 9 10 9 9 9 10 10 9 8 8 9 9
1 0 1 0 2 1 1 2 1 1 0 3 3 4 6 8 12 5 9 9 9 10 10 10 10 9 8 7 6 5 6 7 5 5 5 4 4 5 4 4 4 5 6 5 5 5 6 6 6 8 8 10 10 10 8 9 9 9 9 9 9 8 7 8 8 7 8 10 11 12 14 12 12 11 12 12 12 12 11 10 9 8 9 9 8 8 7 9 10 9 9 9 9 9 9 10 9
1 0 0 1 4 1 1 2 0 1 0 1 3 0 2 4 6 2 3 7 9 10 9 8 10 9 7 6 5 5 8 7 5 2 3 3 4 5 4 4 4 5 4 6 5 5 6 6 6 7 7 9 9 11 10 11 11 11 11 10 9 10 10 9 8 7 7 8 10 12 12 13 12 12 12 12 12 13 12 11 10 10 9 8 8 9 9 10 10 11 11 11 10 10 10 9 10
3 1 4 5 6 1 1 0 1 0 2 1 3 3 3 4 2 9 11 8 10 13 9 9 8 7 7 6 5 4 6 5 4 4 4 5 6 5 5 4 5 5 5 6 5 4 5 6 6 7 8 10 11 11 10 11 12 11 12 11 12 12 12 11 10 9 8 8 8 10 11 11 12 12 13 12 12 12 12 12 12 11 11 10 10 11 9 9 10 11 11 11 10 10 9 9 10
0 2 3 6 1 0 1 4 2 1 2 2 1 2 0 2 5 9 13 9 9 11 10 9 8 7 6 5 4 4 5 5 4 5 3 1 1 2 4 4 3 4 4 4 4 4 5 8 7 7 7 9 12 13 11 10 11 11 11 11 11 11 12 12 12 11 10 9 8 9 10 12 11 10 12 12 11 11 12 12 12 13 12 10 9 11 12 10 10 9 9 8 8 8 9 9 10
1 1 3 2 3 3 7 1 0 2 2 2 5 6 3 3 7 11 11 10 9 10 9 8 7 6 5 5 4 4 4 4 4 4 1 0 1 2 3 4 3 3 4 4 4 5 7 7 6 7 9 11 13 12 11 11 12 12 12 12 12 12 10 11 12 12 11 10 9 9 10 11 11 11 11 11 12 12 12 12 12 12 12 12 10 9 10 10 9 10 10 9 9 10 10 10 10
1 0 3 3 3 3 4 4 2 3 2 1 2 4 8 1 11 10 10 11 13 10 7 7 6 6 5 4 4 5 4 4 4 2 1 0 1 2 3 4 4 4 4 5 6 6 11 11 9 8 10 12 13 12 12 12 12 12 12 13 14 14 13 11 11 11 11 11 10 10 10 11 11 11 10 11 12 11 11 12 12 11 12 12 12 10 10 10 12 13 11 12 11 11 11 10 11
0 1 2 2 4 5 3 1 5 7 1 2 3 4 8 7 10 10 7 7 10 10 7 7 6 5 5 4 4 5 4 4 1 1 0 1 1 3 4 6 5 5 6 7 7 8 10 9 8 8 11 13 13 12 12 12 12 12 12 12 12 14 13 13 11 11 11 11 11 11 10 12 12 10 10 10 10 10 11 12 12 11 12 12 12 13 11 11 10 13 12 13 11 10 11 11 10
2 2 3 2 0 3 1 3 2 5 1 1 5 6 5 1 6 6 5 8 8 10 7 7 7 6 5 4 4 4 4 3 2 1 1 1 3 4 5 5 7 7 6 7 7 8 9 9 9 10 12 12 11 12 12 11 12 13 13 13 13 13 13 12 12 11 11 11 11 11 12 13 12 11 10 10 9 10 11 12 12 13 12 11 13 14 14 11 9 9 10 11 13 12 12 13 12
2 2 1 2 4 2 3 4 2 2 3 3 1 3 5 3 9 6 5 9 9 9 8 7 6 5 4 4 4 4 3 1 1 1 1 3 5 6 7 7 8 8 7 7 6 7 8 7 7 8 11 11 12 13 13 12 12 13 12 12 12 12 13 12 12 11 10 10 10 12 14 14 12 11 11 10 8 9 9 11 13 14 13 11 12 14 14 11 12 12 11 11 11 12 12 13 13
3 4 5 8 4 2 5 2 3 2 1 5 2 4 8 4 5 6 6 6 9 9 9 8 7 6 5 5 4 4 3 2 0 1 2 5 7 6 6 6 7 6 5 5 6 7 6 7 8 11 12 13 13 13 13 12 13 14 13 14 14 14 12 12 12 12 11 11 11 12 14 13 12 12 11 10 8 8 8 10 12 15 13 11 11 13 15 15 12 14 15 13 13 14 15 14 14
6 5 4 2 5 7 6 5 1 5 3 5 5 7 6 2 6 5 4 6 9 7 6 6 6 5 5 5 4 3 3 1 1 1 3 6 5 5 5 5 6 5 6 5 6 7 7 9 8 10 10 12 11 11 11 12 13 14 16 16 16 14 13 13 13 12 12 12 12 13 13 12 12 13 13 10 7 7 8 9 11 13 14 12 12 13 14 14 13 14 15 17 15 10 9 12 12
2 1 1 7 7 8 4 5 2 2 1 7 8 7 5 4 9 10 8 5 6 8 8 7 6 6 5 5 4 4 3 1 0 2 2 4 4 4 4 5 5 6 5 6 8 7 7 9 10 12 10 10 11 13 13 14 14 15 16 16 16 15 15 15 14 12 11 11 13 14 14 13 13 14 13 10 8 7 7 8 10 12 13 13 12 12 13 17 14 15 17 16 18 15 12 9 10
2 3 3 8 4 9 6 4 2 1 2 3 3 4 7 8 7 9 6 8 11 12 10 8 7 6 6 6 5 4 2 1 2 3 3 4 4 6 6 6 5 7 8 7 7 7 6 8 9 11 9 11 12 13 14 14 13 13 15 16 16 17 16 14 16 14 13 13 14 15 15 14 14 13 12 9 8 7 8 8 8 11 12 13 14 14 14 15 19 16 13 13 14 17 11 12 12
2 4 3 4 8 7 9 3 2 1 1 7 4 6 8 9 11 6 13 13 8 9 11 9 10 7 6 5 5 3 2 1 1 0 1 3 5 5 5 5 6 5 6 6 6 6 8 9 10 9 10 13 13 14 13 14 15 16 16 17 16 15 15 15 16 17 16 16 15 14 15 15 14 12 10 10 9 9 8 8 9 9 11 13 14 15 14 14 15 16 16 13 13 11 12 13 16
3 4 2 8 4 2 6 2 3 3 1 4 5 14 12 7 9 7 10 10 4 5 6 7 8 9 7 7 6 4 4 1 0 1 1 4 4 5 5 6 6 5 5 5 6 8 8 9 9 11 13 14 14 13 14 14 17 19 18 17 16 14 16 17 18 16 15 16 17 15 14 13 12 12 12 12 12 10 8 8 8 8 10 11 13 14 14 14 14 17 16 19 18 14 8 13 17
4 5 5 5 4 4 4 5 4 4 5 3 11 12 9 9 11 2 2 3 7 5 7 6 4 5 7 4 4 4 5 2 1 1 1 3 4 5 5 5 4 4 5 6 6 9 8 10 11 13 14 14 13 14 15 16 18 18 16 16 15 16 15 15 16 16 15 15 18 16 14 13 14 14 14 13 12 11 9 8 8 8 9 11 12 13 13 11 12 16 21 19 17 20 17 13 14
3 5 8 6 2 3 4 4 7 6 6 4 0 9 5 4 8 9 5 4 7 5 9 7 7 6 5 5 5 4 4 3 3 1 1 0 1 3 5 5 5 4 6 5 6 7 7 9 12 14 13 13 13 13 15 15 15 17 18 18 19 17 19 18 16 17 17 18 17 18 20 18 16 14 12 12 12 11 12 9 8 8 8 9 11 12 12 10 11 14 17 15 15 14 15 14 16
0 5 3 3 2 0 1 3 4 5 3 2 2 3 13 3 4 8 7 9 9 4 7 7 7 7 5 6 5 4 4 1 0 0 0 2 3 3 4 4 4 5 5 5 5 6 7 10 11 13 13 12 12 13 15 14 16 17 19 18 16 16 18 18 16 15 14 16 16 19 19 19 19 18 17 14 13 12 11 9 8 8 8 8 10 11 11 11 10 12 15 16 18 19 18 17 20
5 1 3 3 0 3 4 2 5 8 0 4 3 2 9 13 7 6 11 13 10 8 7 8 8 7 6 6 5 4 4 3 2 1 0 1 3 4 4 4 4 5 5 5 5 5 8 11 12 12 11 12 12 13 14 14 15 17 20 19 17 17 16 20 20 16 14 14 16 17 18 18 19 18 18 15 13 12 12 12 9 8 8 8 8 10 10 9 9 10 11 14 17 16 17 20 21
3 1 3 1 3 5 4 5 7 3 4 9 5 6 4 8 5 5 12 8 8 11 11 10 9 7 7 6 6 4 4 2 3 0 0 2 3 4 4 5 4 5 5 5 5 7 9 11 11 11 12 12 12 14 14 14 15 17 17 15 17 17 18 17 15 15 15 15 18 16 18 20 18 17 17 17 15 13 12 11 9 7 7 8 7 9 9 8 10 12 13 11 16 18 14 13 17
2 3 1 2 4 3 4 5 5 2 1 12 6 7 5 13 5 6 5 7 11 13 13 12 10 9 8 7 5 5 3 1 1 2 3 3 3 4 2 3 4 5 5 5 6 7 9 10 11 11 12 12 12 14 14 15 16 15 15 16 19 19 17 16 15 17 16 14 15 16 16 16 15 16 16 14 13 12 12 11 9 8 8 8 7 8 11 9 8 11 12 11 13 16 19 18 18
1 1 2 4 3 4 1 1 1 2 4 15 6 10 9 9 4 10 12 12 15 10 7 8 7 8 7 7 6 4 3 2 1 3 4 4 3 2 4 4 4 5 5 6 7 8 10 10 11 13 13 12 13 13 14 16 15 14 14 16 19 20 21 21 19 18 15 15 15 15 14 15 16 15 14 14 14 13 12 12 10 8 7 8 7 7 8 9 6 9 10 11 13 16 17 19 18
1 1 1 5 7 4 2 2 3 1 8 6 4 8 8 7 5 7 8 1 8 16 18 16 13 10 9 6 5 4 3 3 4 4 5 4 3 5 4 5 5 6 7 7 6 8 10 10 11 14 15 14 13 13 15 16 14 14 14 16 17 18 19 17 19 19 18 18 14 13 13 15 15 16 17 16 14 14 13 12 11 8 7 7 8 6 7 8 7 7 8 9 10 13 17 20 16
4 2 2 3 6 5 3 2 3 6 9 2 1 3 2 15 14 3 9 7 6 14 16 17 14 10 8 6 5 4 4 4 4 5 3 3 5 5 4 4 5 6 7 7 9 10 10 10 12 14 16 15 15 15 16 17 15 15 15 17 16 16 17 18 17 18 16 12 12 14 14 15 15 15 15 17 19 17 13 13 10 8 7 7 7 6 6 8 8 8 9 10 10 11 14 19 17
4 2 3 1 3 2 7 4 3 4 5 3 3 4 7 6 8 8 10 7 8 9 10 10 11 10 8 6 5 4 5 5 5 2 4 5 4 4 3 4 5 6 6 8 9 11 11 11 12 14 16 15 15 16 16 17 17 16 15 15 16 15 17 17 16 15 14 14 14 14 14 13 14 15 16 17 17 19 16 15 14 11 8 7 7 7 7 8 8 7 9 10 10 10 11 18 21
7 2 6 6 5 2 9 1 7 10 8 2 4 3 8 1 4 4 5 5 6 7 9 7 8 8 7 6 6 6 5 4 1 4 4 3 4 2 2 4 5 5 6 7 9 11 11 12 12 14 16 16 16 17 15 18 18 17 15 15 15 14 16 16 16 15 15 15 12 13 12 12 14 15 15 16 19 18 18 17 17 15 10 8 7 6 6 7 8 7 8 9 9 7 10 13 18
3 2 5 3 7 5 9 3 2 4 9 7 3 7 4 5 3 3 5 7 6 7 8 8 7 6 6 6 5 5 3 1 3 4 3 4 3 3 4 4 5 4 5 7 10 11 11 12 12 13 14 15 15 16 16 16 18 16 17 17 17 16 15 15 14 14 12 11 15 13 13 14 14 14 14 16 17 18 17 16 18 17 13 9 8 7 6 6 7 7 7 8 10 7 9 14 15
1 4 4 6 2 4 4 2 1 1 1 15 3 8 6 2 1 1 4 8 6 5 6 7 6 6 6 6 5 4 2 2 2 1 2 3 3 3 4 4 5 4 6 10 11 10 10 12 12 14 15 15 16 16 15 15 15 17 17 16 16 16 16 15 15 16 15 15 13 13 12 13 14 14 12 13 16 17 17 15 16 17 15 11 8 6 6 6 7 7 7 7 9 8 9 11 12
6 3 7 1 2 2 3 5 3 1 5 11 5 9 11 7 8 4 3 7 9 7 8 7 7 7 6 6 5 3 2 1 1 2 3 3 3 4 4 4 4 5 8 11 12 10 9 10 11 13 14 16 17 17 18 16 17 17 17 18 18 16 15 14 15 14 15 14 12 13 13 13 14 13 13 12 15 17 16 15 14 15 15 14 9 7 6 6 6 6 7 7 8 9 10 9 11
4 3 2 1 3 3 1 5 4 4 8 9 4 6 14 9 8 6 9 11 12 10 7 7 6 6 6 5 4 3 3 2 1 2 2 3 4 4 4 4 4 5 7 9 10 10 10 10 10 11 13 14 14 14 15 15 15 13 13 16 17 17 15 14 12 16 16 15 17 13 13 14 13 15 12 14 15 13 13 16 15 14 14 14 11 8 7 6 6 6 6 7 8 8 9 10 10
2 1 1 1 2 4 3 5 3 2 11 5 11 3 14 7 8 17 16 16 15 11 9 8 9 8 7 5 5 5 4 3 2 2 3 3 4 4 4 4 6 7 8 8 9 9 11 11 11 12 13 13 14 13 13 15 15 14 16 16 16 15 15 13 14 15 14 15 14 14 16 14 16 12 14 12 14 13 17 16 15 15 16 16 13 10 8 7 6 6 5 6 7 9 10 10 10
2 2 2 1 2 1 2 1 6 6 6 6 9 14 5 5 5 14 16 16 15 13 11 8 7 7 7 7 6 5 4 3 2 3 3 4 4 3 3 4 5 6 6 7 8 10 10 10 11 12 14 15 15 15 14 14 14 15 16 17 17 17 16 14 15 14 15 15 13 17 13 14 13 15 13 15 15 14 14 13 15 15 15 16 15 12 8 7 6 5 5 5 6 8 11 11 9
9 11 10 12 7 4 3 11 4 5 8 6 3 20 10 3 3 9 9 10 12 10 10 8 6 7 7 7 6 5 3 3 3 2 3 4 3 3 4 4 5 6 8 9 9 9 10 11 11 12 12 12 14 15 15 15 14 14 16 16 18 15 13 13 14 15 16 14 14 12 14 12 15 15 14 15 14 13 13 13 14 14 14 14 16 15 11 7 6 5 5 5 5 8 11 11 9
Wind_Direction
308 306 270 255 192 109 43 343 63 320 65 18 138 46 221 27 97 54 31 3 34 290 146 1 34 10 78 189 159 108 42 56 313 119 81 308 186 48 338 349 347 353 348 326 93 121 132 153 130 83 32 358 340 187 172 196 234 242 242 239 245 249 255 258 257 252 252 263 274 259 254 251 244 244 240 246 249 254 265 253 249 243 235 241 268 272 276 279 279 280 276 272 267 262 252 249 201
290 312 302 196 220 83 326 133 101 34 37 48 359 88 10 349 50 85 75 83 172 266 284 52 24 29 9 153 122 82 37 9 14 99 124 294 262 329 357 340 340 354 352 322 33 126 155 191 170 101 73 10 341 281 231 222 223 234 244 245 249 251 254 257 257 254 259 253 243 250 246 245 244 248 249 252 256 249 252 250 261 272 272 275 277 272 273 274 276 276 276 271 265 261 249 234 202
316 0 354 28 20 90 251 38 52 53 86 67 337 32 318 47 68 103 114 115 152 302 12 29 105 38 6 36 57 94 114 36 22 37 136 344 17 345 337 335 345 357 4 355 340 26 355 151 167 121 9 356 341 318 273 254 248 239 234 238 246 256 263 268 266 264 260 273 265 247 253 254 243 243 246 250 259 262 270 261 247 247 263 269 272 269 267 268 270 270 271 271 267 263 254 229 210
316 219 103 60 347 23 64 26 103 121 114 167 68 331 51 104 33 105 144 135 98 73 42 22 77 242 74 34 40 99 70 36 35 352 20 12 340 300 321 344 350 6 13 10 23 20 18 30 28 5 346 339 326 317 302 292 282 262 252 252 245 244 250 257 264 264 262 244 258 265 249 252 250 252 247 247 249 259 259 264 265 259 261 261 262 261 259 261 265 263 261 261 264 261 257 241 210
4 322 146 88 106 358 69 196 139 105 67 179 122 293 49 72 11 42 223 128 75 79 51 31 63 328 71 48 1 57 308 207 42 32 26 321 318 308 329 360 10 16 14 14 20 26 23 37 30 16 3 344 328 315 301 296 305 310 299 272 264 260 248 244 250 258 267 266 259 257 272 265 249 250 255 262 265 260 258 258 263 260 260 261 261 264 265 263 260 260 255 252 251 254 252 239 211
315 15 5 95 100 180 47 32 8 78 192 136 97 160 99 66 32 32 82 21 74 53 108 68 129 296 45 36 39 80 345 35 325 0 31 335 325 316 349 13 24 26 13 14 14 13 10 22 27 25 7 354 341 332 323 310 301 304 302 299 284 274 270 261 252 248 256 263 254 252 249 255 268 274 273 268 261 274 268 257 256 265 273 264 259 260 263 268 269 262 263 260 250 242 241 223 213
315 40 5 22 359 62 140 114 173 139 359 112 137 154 117 37 336 62 15 66 350 53 6 113 86 74 103 153 80 67 50 4 15 337 344 291 313 347 5 21 34 28 16 7 7 6 0 2 5 6 357 346 337 327 320 319 317 309 304 300 297 291 280 273 268 260 258 265 274 276 270 269 270 265 263 264 265 259 260 250 212 230 245 251 256 258 260 264 267 274 270 266 266 261 243 212 209
24 91 301 89 290 55 9 124 202 158 43 102 166 112 88 41 19 59 353 108 228 93 350 31 77 88 36 54 101 73 30 30 55 302 312 332 333 8 23 19 27 19 15 9 3 360 353 350 353 357 347 338 332 324 321 317 313 311 307 301 298 295 295 292 284 277 269 272 266 257 259 275 268 266 267 261 254 255 225 215 227 225 236 246 252 258 258 259 263 269 273 268 263 263 266 221 205
324 81 354 66 20 7 50 269 15 81 107 68 66 115 114 119 96 67 348 323 102 78 37 335 81 89 136 76 78 24 33 349 334 343 14 21 25 23 36 33 35 27 24 20 16 13 11 6 2 350 332 335 328 327 327 324 318 313 311 308 302 298 294 292 293 288 273 256 260 266 262 252 259 267 278 286 274 256 230 227 227 232 232 239 249 258 261 260 260 263 268 271 264 263 268 252 210
356 94 329 109 128 336 315 289 71 115 120 134 113 93 89 317 27 90 80 28 131 120 14 338 86 88 102 70 143 23 2 338 285 22 19 27 37 43 40 36 39 37 29 23 21 19 16 14 13 13 5 345 329 324 324 320 316 313 309 307 306 304 304 302 295 294 291 282 270 269 270 269 258 258 265 259 259 260 248 237 242 245 238 241 246 251 257 260 261 260 262 268 270 258 243 244 237
352 10 147 63 32 18 58 259 126 133 123 156 66 55 92 332 96 33 52 95 61 91 328 36 57 100 91 91 80 225 334 331 21 15 2 23 40 40 40 32 32 37 34 26 21 21 17 14 13 13 11 8 358 340 326 319 316 313 311 305 302 301 301 299 298 297 294 290 285 273 265 264 265 257 251 255 260 247 252 247 250 264 264 256 252 253 254 255 257 258 260 264 266 257 240 235 230
11 3 15 95 211 157 235 146 162 101 48 34 18 328 19 99 87 40 13 62 38 55 58 25 129 127 85 105 55 19 336 14 14 1 12 29 38 37 39 32 27 29 35 28 21 21 18 15 13 6 9 7 4 357 351 333 317 314 309 309 309 303 298 298 297 298 296 292 286 282 280 276 273 269 265 260 255 247 244 243 236 243 247 249 250 253 253 251 250 254 257 260 260 258 250 235 218
83 81 67 88 224 142 247 92 183 121 57 334 184 265 114 62 91 142 77 122 67 70 20 332 199 86 90 83 67 348 26 5 1 7 21 35 38 35 32 30 23 26 29 26 24 18 16 16 13 9 7 5 3 359 354 352 348 326 311 312 309 308 303 297 296 295 297 297 294 292 286 285 281 274 269 265 248 243 240 236 235 240 241 241 242 246 251 249 246 248 253 254 253 254 248 238 214
103 177 111 254 27 273 101 152 77 94 14 221 262 251 148 112 267 128 119 70 46 82 20 327 79 113 91 88 23 19 18 349 1 11 23 31 35 35 31 24 22 23 27 28 25 18 17 14 11 11 10 8 2 360 358 354 351 349 338 322 314 308 304 299 293 292 292 290 291 291 287 283 279 275 269 266 258 251 247 241 236 237 240 239 237 240 244 245 242 240 244 250 249 247 241 236 216
64 121 85 135 308 55 243 93 145 124 112 144 293 78 82 320 118 58 100 121 48 52 173 36 288 67 303 114 18 28 8 347 9 12 25 24 26 29 26 25 25 23 25 28 25 20 17 14 12 9 11 9 3 1 357 353 353 352 347 343 334 323 311 308 302 294 286 285 285 285 283 282 276 270 266 259 254 251 249 246 244 239 239 240 236 237 238 239 237 235 237 244 249 245 238 231 213
166 81 90 74 294 43 288 91 40 97 114 146 24 98 81 342 106 87 274 105 99 15 54 33 27 82 86 83 102 67 27 19 18 26 31 29 19 23 22 19 23 22 23 24 22 19 15 17 14 10 9 10 4 358 356 353 351 352 352 348 342 336 325 313 304 299 295 286 283 281 279 276 278 274 263 257 251 246 245 243 244 248 244 239 239 238 237 235 234 233 236 239 245 246 236 225 214
43 84 40 28 308 77 278 83 110 22 183 357 1 37 118 235 329 97 85 81 80 56 62 35 82 63 76 99 103 67 35 37 34 35 36 30 23 22 17 19 13 18 19 24 20 13 10 15 14 12 8 10 4 359 354 352 349 350 351 348 345 341 336 326 311 303 299 297 285 277 276 274 267 269 269 258 250 245 240 240 241 241 239 236 235 237 238 237 234 230 234 235 240 243 235 223 215
64 52 100 349 210 71 244 110 105 132 105 286 35 47 98 66 338 296 73 77 90 82 83 79 69 69 82 86 81 76 51 47 36 45 37 37 25 26 22 14 15 13 10 12 14 10 8 9 10 10 5 9 5 360 355 350 348 349 347 347 345 344 340 336 326 311 300 292 291 285 276 271 266 263 262 263 255 247 240 235 236 238 239 238 236 234 235 236 235 231 232 234 236 236 230 223 217
84 64 91 222 213 236 106 155 43 88 111 152 307 85 118 178 137 333 79 106 114 88 81 93 83 69 64 57 50 49 51 52 46 50 49 41 33 31 24 11 15 9 14 9 8 8 6 5 8 8 1 5 6 1 353 350 350 348 346 344 342 342 340 338 335 327 314 303 296 289 282 273 268 262 258 253 252 247 241 232 232 237 237 237 236 233 232 232 234 236 235 235 233 231 225 215 210
281 105 307 245 222 260 118 89 105 117 152 57 354 18 102 285 105 329 110 106 99 113 129 75 89 92 73 59 50 51 55 53 49 49 49 45 39 31 24 16 9 8 359 3 350 359 6 7 3 8 359 0 6 359 353 350 351 350 346 344 343 339 337 336 335 331 327 320 313 303 294 282 273 269 263 257 253 254 248 241 236 234 235 235 233 234 235 233 232 234 235 236 236 229 214 209 206
300 71 194 241 267 11 308 90 131 108 90 107 25 5 43 308 307 115 145 78 46 66 128 140 133 119 104 77 64 53 51 53 44 42 43 43 40 38 33 14 3 348 345 333 1 6 2 2 2 5 0 358 4 357 353 348 346 348 345 343 343 341 337 335 330 328 325 323 321 316 307 301 293 282 274 268 256 247 248 247 240 237 233 234 231 232 227 227 225 224 232 234 230 222 212 207 200
74 214 222 226 356 17 279 70 74 88 65 65 49 56 275 308 38 75 156 123 159 146 120 117 122 126 115 105 97 82 74 69 63 53 50 53 53 39 29 17 3 356 348 12 356 360 2 359 359 6 356 358 360 352 349 339 342 348 344 341 339 339 340 333 330 331 328 325 323 318 315 310 306 299 292 281 275 268 257 246 242 232 226 226 218 223 221 220 215 212 218 222 223 220 214 204 202
333 313 296 7 159 252 318 48 29 73 42 53 40 216 347 65 67 46 79 112 123 123 124 119 118 116 118 115 107 79 73 68 62 56 45 41 38 39 37 31 15 358 345 358 347 357 353 0 357 5 352 356 353 344 343 341 343 343 338 336 339 336 337 336 338 335 329 322 320 319 319 316 312 308 304 300 290 282 273 273 260 243 231 224 216 215 216 214 213 211 210 214 214 214 215 205 200
131 234 315 321 357 339 352 34 45 77 82 29 251 25 223 115 101 24 93 104 122 124 122 118 115 111 109 95 85 92 91 84 69 59 49 40 37 29 31 25 11 353 354 347 355 347 350 354 355 2 353 357 349 344 340 336 335 339 335 334 335 331 333 339 336 330 324 326 325 323 319 317 315 314 310 306 302 294 283 273 270 268 259 249 222 212 213 210 211 211 209 207 206 207 210 205 199
125 279 296 274 350 278 349 34 45 57 51 64 41 27 306 161 129 108 115 132 126 123 115 112 110 104 96 96 102 100 89 72 62 43 39 25 16 11 12 20 1 353 355 337 343 350 348 344 354 358 357 355 350 342 340 332 332 333 332 332 329 325 329 334 328 323 327 329 328 328 331 325 321 314 312 311 307 297 291 280 264 256 256 254 244 222 211 209 211 209 208 204 202 203 202 202 200
185 218 282 331 277 288 294 2 29 81 344 51 53 352 338 112 100 59 153 143 133 123 111 113 108 105 105 110 108 100 87 78 62 51 52 28 8 23 352 1 347 1 346 324 345 345 349 345 352 356 357 354 347 345 341 338 339 334 333 330 325 322 318 320 316 315 324 329 328 329 326 322 320 316 315 313 310 304 296 286 276 269 258 259 261 257 230 214 209 206 205 203 200 202 200 197 194
170 64 287 305 281 290 313 181 268 151 183 52 39 305 312 211 96 176 204 157 138 122 121 114 110 112 117 113 105 100 93 81 84 86 40 33 23 22 336 341 356 336 337 338 339 345 346 345 346 351 354 353 350 348 342 339 338 336 334 330 328 326 320 319 318 314 319 322 321 322 320 322 320 320 319 318 315 313 307 298 284 270 261 252 254 247 237 226 213 203 199 198 200 200 202 192 193
57 83 347 314 276 277 264 143 293 3 303 36 49 293 234 257 104 175 169 173 148 129 125 119 114 119 120 119 116 120 99 104 94 77 60 35 21 7 339 334 331 331 346 338 330 327 342 343 341 346 352 351 349 345 341 338 338 335 332 332 331 328 326 322 319 317 317 316 318 316 317 317 318 316 316 313 310 309 307 304 297 281 265 257 245 250 244 240 221 210 203 202 199 197 198 191 192
156 70 331 318 25 335 230 205 244 131 271 339 311 337 93 206 195 169 158 158 148 130 130 132 129 127 126 128 133 121 113 101 78 65 63 91 346 351 332 285 313 330 308 309 311 325 341 351 349 344 346 349 348 343 340 335 333 333 332 329 326 325 324 322 319 318 314 314 312 312 311 312 312 313 311 307 309 309 307 305 300 290 276 262 249 246 249 239 229 207 205 193 191 194 192 194 189
93 57 148 16 18 331 265 267 144 119 255 349 37 321 263 239 155 162 160 151 137 124 134 137 138 138 139 134 123 103 96 87 80 93 117 281 302 297 313 287 307 314 314 315 327 344 346 351 346 345 348 347 343 338 335 335 335 332 329 326 323 321 319 317 315 312 309 308 308 308 309 307 307 308 306 312 314 309 307 304 301 300 289 273 259 247 244 247 235 210 192 186 190 187 191 188 187
122 255 77 137 77 268 261 190 195 175 242 154 91 261 282 197 168 166 168 153 143 140 143 142 142 145 143 148 135 114 103 123 134 103 61 251 259 257 292 306 321 330 333 339 351 345 357 354 352 346 342 341 338 335 332 330 329 327 325 324 323 321 316 313 309 307 305 306 307 305 305 304 301 300 307 311 308 307 308 307 304 301 299 288 268 248 239 238 228 216 190 188 185 188 188 185 185
6 56 302 323 143 272 289 292 162 194 287 150 98 268 255 178 183 176 160 146 136 139 150 149 147 143 152 148 130 114 99 82 79 91 346 290 271 320 351 344 337 336 347 349 353 357 355 350 347 344 340 338 337 332 328 325 323 321 318 314 311 312 310 309 308 304 303 302 302 301 301 300 298 296 301 305 301 309 310 306 303 300 299 296 280 262 247 244 238 222 193 179 177 189 182 183 186
359 115 260 293 2 276 345 276 180 168 130 311 164 242 320 234 197 173 166 143 145 143 153 157 152 151 141 130 117 106 86 35 6 309 290 293 333 4 1 358 350 348 346 352 353 352 352 351 350 344 336 330 325 323 321 321 321 319 317 312 308 306 304 303 303 303 299 299 299 300 301 297 291 292 296 297 300 305 307 304 303 301 300 297 292 273 252 239 233 223 205 186 182 178 184 180 181
316 41 218 218 282 290 275 307 298 213 171 255 259 222 237 240 174 184 172 155 147 149 157 154 150 146 139 124 106 110 118 137 302 275 289 23 20 8 2 358 352 349 348 348 346 351 348 345 339 333 330 330 330 328 326 323 319 316 314 311 306 304 302 301 299 296 293 293 295 295 296 293 287 287 291 292 291 295 297 302 305 301 299 299 296 287 262 236 219 216 215 199 191 178 181 179 178
248 299 318 309 338 262 236 313 272 138 289 209 281 256 268 261 188 189 177 166 153 160 161 157 154 143 135 122 119 128 151 191 261 245 35 39 26 9 359 352 345 344 334 331 345 346 346 338 339 337 334 330 327 326 323 321 320 318 314 313 310 307 303 299 295 295 296 293 290 291 290 287 285 286 288 288 287 292 298 301 302 301 299 296 296 295 275 245 224 215 208 200 195 187 180 181 176
236 225 219 227 276 280 258 243 264 157 208 248 235 239 271 170 201 210 193 176 159 164 151 151 149 142 131 131 140 144 176 193 261 21 52 45 34 15 346 343 344 335 329 339 345 349 344 339 339 333 329 326 325 327 328 324 323 323 321 319 314 310 306 301 298 295 295 294 292 291 287 284 286 288 286 279 274 285 297 301 303 302 299 297 298 298 290 253 224 220 218 198 193 197 194 180 169
237 277 242 257 253 275 277 268 259 152 288 231 235 251 243 230 204 212 192 158 155 159 163 162 155 142 145 145 149 171 159 177 267 77 59 55 35 1 352 352 342 332 333 345 348 343 339 333 334 331 329 332 337 334 331 329 327 323 319 316 311 308 309 308 301 296 292 291 294 294 289 283 283 285 282 275 271 281 286 294 299 300 299 296 293 289 292 283 249 223 208 198 189 188 184 170 156
226 249 257 271 246 268 256 264 177 314 156 286 262 258 257 254 250 208 192 160 185 173 170 166 156 155 154 153 163 154 196 246 16 42 358 20 18 3 6 352 333 346 339 346 341 328 326 329 333 330 336 338 336 332 326 323 322 318 314 312 310 307 309 309 306 304 300 297 296 293 288 283 281 279 276 269 271 273 287 292 293 297 299 295 291 289 287 291 277 236 213 203 195 178 182 168 158
261 227 258 305 270 251 280 255 150 184 359 260 274 259 253 253 250 232 179 191 187 185 171 165 153 156 158 158 165 166 100 71 359 306 322 6 15 2 5 342 336 333 323 328 319 330 334 338 338 340 339 336 332 328 325 321 319 317 315 307 305 304 302 305 302 299 301 299 298 294 288 282 279 276 273 271 272 275 272 281 286 290 292 294 294 294 290 289 294 264 219 203 185 198 178 169 166
234 284 303 249 243 336 301 300 349 318 126 269 271 279 270 249 245 219 197 183 166 177 156 156 151 154 158 174 171 165 138 120 10 258 293 345 11 358 355 342 323 321 327 327 340 340 337 342 346 341 337 332 326 324 323 322 321 316 310 303 304 306 310 310 305 304 303 301 299 296 288 281 276 274 276 277 272 268 262 267 277 282 287 291 293 291 287 284 284 288 257 212 186 178 190 179 179
259 215 230 254 271 234 203 259 322 308 308 291 292 280 272 220 230 173 160 121 132 154 131 137 155 156 170 157 136 156 151 165 208 267 322 349 0 344 323 303 306 326 331 338 341 344 345 347 345 340 333 329 325 326 331 331 324 320 321 321 320 315 308 307 310 307 312 317 313 306 300 293 287 282 277 273 270 268 263 260 266 274 281 289 292 288 283 276 279 281 273 237 202 177 176 177 187
300 236 210 235 190 254 296 331 15 356 316 267 92 321 279 279 207 180 163 142 164 178 146 159 164 172 155 148 170 180 163 182 172 205 212 204 342 306 307 304 320 331 341 335 339 343 349 344 340 334 329 326 327 330 334 332 328 329 327 323 321 322 317 316 313 313 317 312 308 306 305 304 296 285 279 275 270 267 265 257 258 270 279 286 290 287 282 279 271 275 285 268 222 197 175 175 178
323 269 162 152 147 253 281 325 35 299 253 307 92 190 286 114 179 173 182 180 184 180 167 177 175 181 174 170 169 160 167 187 65 184 155 24 320 294 292 301 316 341 330 331 345 344 345 339 336 331 327 326 329 329 332 334 331 326 320 315 310 311 310 305 304 303 303 304 305 304 301 297 296 294 287 276 271 262 259 256 255 261 270 278 283 285 282 278 274 281 284 287 263 211 183 179 176
245 241 136 109 283 275 263 239 203 247 49 294 282 165 269 289 247 196 174 182 189 186 191 185 189 184 177 171 170 162 185 189 168 201 302 269 259 258 293 309 335 333 333 347 343 344 340 335 332 328 325 327 328 329 331 336 330 325 318 314 312 309 306 301 301 302 301 300 301 305 304 296 290 287 286 279 267 262 256 255 249 255 266 274 276 282 281 281 283 268 267 278 289 262 194 180 179
224 225 151 219 210 235 238 228 247 252 19 282 199 211 265 248 278 167 155 186 213 204 192 192 188 187 172 175 172 179 187 197 171 171 226 245 258 281 305 333 330 347 350 344 341 338 334 331 328 326 325 327 326 327 330 331 329 320 313 311 310 307 302 296 297 298 300 300 299 304 301 296 290 285 280 277 267 260 254 249 245 248 258 271 270 278 278 279 281 284 281 284 282 283 245 202 180
277 194 198 227 248 246 214 236 251 329 89 269 214 186 207 271 191 104 193 212 213 203 189 188 185 180 173 168 180 179 200 208 181 166 220 243 251 284 313 336 352 345 340 340 334 331 329 327 325 326 325 325 324 326 327 325 323 317 311 311 309 309 309 304 301 300 300 301 300 304 301 298 295 294 294 289 278 264 253 246 243 240 247 264 265 272 280 279 280 281 284 281 277 282 262 210 192
161 82 331 338 303 251 170 156 145 41 234 251 201 198 183 286 222 172 161 213 208 167 167 184 188 177 171 169 176 189 196 199 191 221 242 239 254 321 358 1 341 346 344 337 330 328 327 326 325 325 324 323 323 323 324 321 318 315 313 312 313 312 311 308 303 302 301 299 298 301 305 309 309 299 293 289 285 273 259 248 243 237 233 255 262 269 273 280 282 282 283 281 284 280 284 255 201
91 12 57 339 307 17 53 353 56 130 266 258 232 198 203 205 282 203 216 288 165 167 177 179 179 171 170 172 187 182 181 180 204 226 239 253 347 358 12 3 349 339 336 327 321 326 324 323 327 325 324 325 324 324 322 319 317 316 315 313 309 309 308 306 306 305 304 297 299 308 312 308 307 311 313 305 291 278 266 254 245 240 232 242 258 263 274 280 282 279 280 281 277 282 277 280 230
76 61 37 24 287 8 328 34 292 196 229 248 157 172 321 233 238 203 222 235 185 176 174 174 164 162 168 182 182 182 177 186 208 222 240 5 10 351 355 341 339 335 326 321 325 325 322 322 327 326 322 327 325 325 322 320 321 322 321 316 313 311 306 304 303 302 301 307 313 307 309 306 307 305 303 303 307 301 282 264 251 242 234 237 248 260 271 279 284 278 274 269 276 275 280 281 264
101 135 146 78 324 352 276 241 242 295 293 248 91 46 255 271 296 212 205 210 177 155 148 147 147 156 171 175 174 173 192 193 207 219 31 19 344 333 332 323 324 322 319 322 324 325 324 324 328 326 320 323 323 322 323 322 322 320 319 317 315 314 312 309 307 305 309 308 306 302 304 306 305 302 303 301 301 303 303 290 269 249 228 225 236 245 261 270 274 273 271 272 268 272 275 276 271
204 150 136 185 158 193 286 261 273 280 258 264 266 14 230 132 240 299 198 134 123 123 129 138 144 158 167 169 167 177 183 208 193 42 30 347 315 308 299 310 315 313 315 321 322 324 325 325 327 324 320 322 325 324 325 324 321 319 318 318 317 316 314 312 309 307 306 303 299 304 307 306 303 302 301 301 300 301 303 306 292 266 244 221 224 234 246 261 268 267 268 269 268 268 269 271 274
211 162 83 90 231 137 237 195 243 308 321 302 178 212 192 191 327 13 106 113 115 133 137 137 153 158 150 151 165 176 187 126 43 42 354 313 293 286 316 318 307 304 311 317 322 324 324 322 321 318 316 318 321 322 323 322 318 318 320 320 320 319 314 310 306 304 302 308 310 303 299 300 300 300 298 297 297 299 301 304 301 285 261 233 217 220 236 249 265 269 271 271 274 264 269 275 272
210 109 207 209 182 147 303 340 107 339 14 260 169 285 262 306 119 79 122 124 145 145 151 146 159 167 154 168 178 174 143 85 36 356 277 277 292 288 292 297 305 312 320 322 322 323 320 320 320 317 317 318 320 320 319 318 317 319 319 320 321 320 316 311 308 304 304 299 291 292 300 301 299 297 294 296 297 296 296 297 298 294 276 256 227 217 227 238 252 269 273 278 278 275 268 273 271
104 203 241 240 137 107 134 239 332 42 234 270 132 248 271 118 276 171 172 161 176 182 176 166 172 168 159 178 169 158 134 126 223 241 245 245 252 275 291 297 300 313 320 322 323 323 320 316 315 315 316 320 321 321 322 323 323 321 319 320 320 317 313 309 307 304 303 299 296 299 298 295 295 293 291 290 290 292 294 294 294 294 287 268 247 225 221 229 244 260 270 273 273 274 268 268 270
171 178 262 115 265 291 149 83 273 273 259 273 259 220 253 172 220 165 210 189 193 196 185 167 178 172 170 176 170 175 163 212 238 254 265 270 281 288 298 295 294 305 314 313 315 317 315 315 315 313 313 314 314 315 316 316 317 314 314 314 315 315 312 307 302 301 301 296 295 292 292 293 294 292 287 290 292 295 299 301 302 302 299 281 259 240 221 224 228 251 263 273 278 273 269 267 269
51 27 352 252 110 225 156 196 195 161 270 308 279 23 271 147 216 181 195 197 190 183 178 188 184 182 173 175 175 177 207 210 219 236 244 253 273 281 288 303 312 316 318 317 315 314 313 313 314 314 311 311 311 311 312 311 312 311 309 309 309 308 305 303 302 300 296 292 294 296 296 295 294 292 288 288 291 294 298 297 298 305 306 298 275 253 236 225 224 232 250 270 279 282 278 273 274
155 161 220 323 193 243 122 296 156 202 249 247 297 296 262 193 166 170 195 190 194 176 182 182 189 179 175 173 170 192 193 200 217 222 239 258 272 290 304 299 305 309 309 313 315 313 311 314 314 316 315 315 314 313 313 309 310 308 309 309 309 309 305 303 301 299 296 296 292 294 291 294 296 293 296 294 292 291 291 294 301 301 301 298 290 268 249 235 230 237 247 260 280 283 279 276 272
184 178 204 195 160 210 214 258 110 225 222 234 200 259 259 228 185 185 180 183 177 176 170 185 186 167 171 177 181 171 186 208 202 230 248 268 285 304 302 306 312 317 316 317 314 312 317 316 314 313 312 311 313 314 315 312 311 309 310 310 308 305 301 303 302 300 298 294 293 290 294 293 294 293 292 288 285 289 292 296 297 297 296 296 293 280 260 245 241 247 259 265 282 286 285 281 277